User: anonymous   Login
Location: Colossi of Memnon
(25.7167°N, 32.6167°E)
Time: 17:04:11
(UTC+00:00)
Language:

YAOGAN 6 - Orbit

View from above orbital plane
View from above orbital plane
View from above satellite
View from above satellite

Ground track
Ground track

The orbit data is extracted from the following two-line orbital elements,

1 34839U 09021A   21125.97089262  .00000723  00000-0  29260-4 0  9998
2 34839  97.0481 122.2542 0026133 314.2360  45.6734 15.27452820669006
Epoch (UTC): 05 May 2021 23:18:05
Eccentricity: 0.0026133
inclination: 97.0481°
perigee height: 465 km
apogee height: 501 km
right ascension of ascending node: 122.2542°
argument of perigee: 314.2360°
revolutions per day: 15.27452820
mean anomaly at epoch: 45.6734°
orbit number at epoch: 66900

The dashed part of the orbit path shows where the satellite is in the earth's shadow,  

DLR